顯示廣告
隱藏 ✕
※ 本文轉寄自 ptt.cc 更新時間: 2021-08-30 08:30:07
看板 Baseball
作者 JIYUI (KUO)
標題
 [炸裂] 筒香嘉智

時間 Mon Aug 30 04:07:29 2021


筒神半夜不睡覺開轟
九局下1出局一二壘有人 3:1 落後紅雀
相中第一球打到就知道出去了直接尻出場外
幫助球隊4:3氣走紅雀
整場四分打點都是筒神(四局下高飛犧牲打

https://i.imgur.com/bVZMJh1.jpg
[圖]
擊球數據
Exit velo: 105.8 mph
Launch angle: 32 deg
Proj. distance: 422 ft
88.6 mph Slider
30座球場都會出去

開轟影片
https://twitter.com/mlb/status/1432074567506354177?s=21
[圖]
MLB
@mlb
Yoshi hits one literally out of the park for the @Pirates win!

全隊等候筒神回壘慶祝
https://twitter.com/pirates/status/1432076322898124811?s=21
[圖]
Pittsburgh Pirates
@pirates
YOSHI WITH THE WALKOFF HOMER!

#RaiseIt

附上賽後數據
     G PA  H 2B 3B HR RBI AVG  OBP  SLG   OPS
TB  26 87 13  4  0  0  5 .167 .244 .218 0.462
LAD 12 31  3  0  0  0  2 .120 .290 .120 0.410
PIT 13 27  9  2  1  5  11 .333 .387 1.037 1.424

轉隊到海盜後的筒神跟鬼一樣
道奇太會調了吧

--
--
※ 發信站: 批踢踢實業坊(ptt.cc), 來自: 111.254.40.241 (臺灣)
※ 文章代碼(AID): #1XA-a3Wq (Baseball)
※ 文章網址: https://www.ptt.cc/bbs/Baseball/M.1630267651.A.834.html
※ 同主題文章:
※ 編輯: JIYUI (111.254.40.241 臺灣), 08/30/2021 04:11:24
bluebluelan: 一代一代一代1F 08/30 04:08
Rajon: 再見三分砲!!!!!!!!!!!!!!!2F 08/30 04:08
rayes: 剛好看到 筒神再見紅不浪 傻眼3F 08/30 04:08
buccos: 太神了 再見轟4F 08/30 04:08
PoLiao: 逆轉三分球5F 08/30 04:09
hsuan8871: 一代一代一代6F 08/30 04:11
cc03233: 打出場外 阿筒他做到了7F 08/30 04:11
seeking: 近況真好8F 08/30 04:13
taihoo: 筒神在海盜已經5轟?9F 08/30 04:13
myeunji: 反觀大谷10F 08/30 04:15
Hard4Love: 筒神復活11F 08/30 04:16
boris0610: 三幻神近況最差反而是韓國阿成了12F 08/30 04:16
rxiang: 5發沒錯13F 08/30 04:16
taihoo: 筒神、大谷 靈魂互換XD14F 08/30 04:17
[圖]
MLB
@MLB
Yoshi hits one literally out of the park for the @Pirates win!
HWtseng: 超大號全壘打16F 08/30 04:19
taihoo: 感謝分享17F 08/30 04:19
※ 編輯: JIYUI (111.254.40.241 臺灣), 08/30/2021 04:24:58
a4268139: 酥 酥 酥齊呦~~~18F 08/30 04:21
sleeeve: 大谷沒好球打,也不能怪他19F 08/30 04:22
hhhhh11: 太鬼了吧20F 08/30 04:23
※ 編輯: JIYUI (111.254.40.241 臺灣), 08/30/2021 04:26:08
mmm87963: 跟大谷換帳號了21F 08/30 04:26
HaiTurtle: 大大大復活22F 08/30 04:26
godtnmai: 筒香果然跟海有關的很合23F 08/30 04:27
※ 編輯: JIYUI (111.254.40.241 臺灣), 08/30/2021 04:27:47
jeff1013: 猛24F 08/30 04:28
stpmouse: 太扯了25F 08/30 04:29
TAKE: 再見逆轉3分砲!!26F 08/30 04:29
NowQmmmmmmmm: 打超遠的27F 08/30 04:35
aiyokueustia: 這球直接飛出場啊…主播也整個酥~酥~酥給有,這下沒28F 08/30 04:38
aiyokueustia: 人敢嘴他只有疫苗能打了吧
※ 編輯: JIYUI (111.254.40.241 臺灣), 08/30/2021 04:39:11
※ 編輯: JIYUI (111.254.40.241 臺灣), 08/30/2021 04:40:30
lionsss: 我怎麼聽到轉播人員在講 出出出出起喔的台語XD30F 08/30 04:40
※ 編輯: JIYUI (111.254.40.241 臺灣), 08/30/2021 04:42:17
kkktj37: 筒神太神啦31F 08/30 04:44
tLuesuGi: 太神啦32F 08/30 04:51
※ 編輯: JIYUI (111.254.40.241 臺灣), 08/30/2021 04:54:56
tinghsi: 風水對了33F 08/30 04:53
※ 編輯: JIYUI (111.254.40.241 臺灣), 08/30/2021 04:56:44
cweilun: 又打 又打全壘打!34F 08/30 04:57
william80730: 都飛出場外了沒想到才422ft35F 08/30 04:58
ojmarc: 命中要有海輔助才能激發潛力36F 08/30 04:58
goury: 日本大王37F 08/30 04:58
jimmy: 轉運了38F 08/30 05:01
patrick123: 海盜太猛了吧39F 08/30 05:04
taiwanstrike: 太神啦40F 08/30 05:05
a86710985: 亞洲筒神霸氣登場41F 08/30 05:09
rxiang: 看5ch有人提到是海盜2nd half並列最多HR  查了下還真的是42F 08/30 05:09
rxiang: https://i.imgur.com/rOZ2ayw.jpg
[圖]
eddy12357: 太神啦 是說本來還以為是代打ww44F 08/30 05:16
Alexander13: 道奇佛心免費訓練營45F 08/30 05:18
kiversonx17: 太神啦亞洲筒神46F 08/30 05:21
rei196: 日本人都是大砲!47F 08/30 05:22
KMTisdog: 又舔嘴唇!48F 08/30 05:24
hard9977: 下半季東山在起獎??49F 08/30 05:32
kalinlove: 筒神有料50F 08/30 05:33
thb96300: 又打...又打...又.又打全壘打!!!51F 08/30 05:36
godmother: 一早起床就看到神績52F 08/30 05:37
th11yh23 
th11yh23: 打到球場外走道了 超大支53F 08/30 05:37
hcnchccedutw: 太神啦54F 08/30 05:39
bananacookie: 海盜的筒神55F 08/30 05:41
william80730: 明年應該不用回日本了56F 08/30 05:42
LaoEr: !!!!!!!!!!!!!!!!!!!爽啊刺啊!!!!!!!!!!!!!!!!!57F 08/30 05:42
shonbig: 看來筒神是比較喜歡出航喔58F 08/30 05:46
star07: 亞洲筒神59F 08/30 05:52
jax56: 一下3:1落後 一下又4:3氣走紅雀?60F 08/30 06:06
guns: 神啦!61F 08/30 06:13
chengyu1010: 太神啦62F 08/30 06:18
wryyyyyyyy: 又打 又打63F 08/30 06:26
thomas55: 去海盜忽然打通任督二脈64F 08/30 06:31
Iversonchi: 這篇還沒爆?? 筒神再見三分砲耶XDD65F 08/30 06:31
gify0712: 太早了 我也剛起床XD66F 08/30 06:34
CAIJEIWEN: 又轟 又轟67F 08/30 06:39
FRANKYCHang: 太神68F 08/30 06:43
cocojohn111: 再見轟太神了吧69F 08/30 06:45
YoCheng: 一代一代70F 08/30 06:45
leo199900808: 統神777777771F 08/30 06:49
pochaccofang: 真的好香!72F 08/30 06:53
Miyanishi25: 絕殺XDDDDDDDDDDDDDDDDDDDDDDDDDDDDDDDDDDDDDDDDD73F 08/30 06:53
henry1915: 我們不要大谷了74F 08/30 06:54
cerenin: 整個換個人似的  超猛75F 08/30 06:54
a27783322: 明年至少還有約了76F 08/30 06:56
quando225: 台肥新產品77F 08/30 06:58
leo79415: 反觀你谷78F 08/30 07:03
xisthebest: 反觀79F 08/30 07:04
onion10021: 太強了80F 08/30 07:04
hipnos: 反觀 好遠喔!!!!!!!!81F 08/30 07:04
c8121175: 太神啦欸蝦嘎痛82F 08/30 07:07
beeboombee: 太神啦83F 08/30 07:07
shushu4ni: 太神了84F 08/30 07:11
YLTYY: (づ′・ω・)づ扯爆85F 08/30 07:11
tovshang: 恭喜XD86F 08/30 07:13
s310213: 躲人太扯了,會選會養會搶,還會送鹽給敵人87F 08/30 07:14
holypiggy: 太鬼了吧筒神88F 08/30 07:17
zaza1128: 太鬼了89F 08/30 07:18
sad9876520: 太神啦90F 08/30 07:18
sean0126: 我筒好可愛91F 08/30 07:19
pop1014: 強92F 08/30 07:19
billst95: 太感動啦93F 08/30 07:24
tom50512: 有夠扯的94F 08/30 07:28
KAIXA666: 筒神也太鬼95F 08/30 07:28
TAKAKO28: 太神啦 亞筒96F 08/30 07:28
catsondbs: 光芒表示:97F 08/30 07:29
Hans14: XD 又是 Su Sussudio https://youtu.be/r0qBaBb1Y-U?t=71Collins98F 08/30 07:29
Hans14: 說是代表某個女孩子的意思
loungelover: 三幻神還剩誰100F 08/30 07:30
edouard09: 再見轟怎麼還沒爆101F 08/30 07:35
H132196: 扯102F 08/30 07:36
polanco: 當初直接去躲人去年就是冠軍功臣了103F 08/30 07:37
jevoling: 命中屬水的男人104F 08/30 07:38
lemilo9685: 恭喜台灣的至寶跟日本的至寶最近都有好表現105F 08/30 07:39
alcpeon911: 他的球可以穿過我的巴巴啊106F 08/30 07:40
CornyDragon: 欸你看我HR107F 08/30 07:43
lxf: 覺醒108F 08/30 07:44
dusted: 讚啦109F 08/30 07:45
maxian30201: 換個隊直接靈魂置換喔110F 08/30 07:45
chicktap: 太神啦111F 08/30 07:53
game147: 太強112F 08/30 07:55
MrSatan: 五轟的每一場 海盜都贏了113F 08/30 07:56
indoman: 扯114F 08/30 07:59
qoo921: 爽翻115F 08/30 08:03
kaze1225: 誇張耶116F 08/30 08:05
HoriMiona: 拉克蘭怎麼都不敢出來口犬了117F 08/30 08:06
Yofu: 低調的隊伍適合他118F 08/30 08:09
sinonbulls77: 筒神大五個!119F 08/30 08:10
xman262: 亞筒真強120F 08/30 08:11
Adam6613: 太神啦!!!!!121F 08/30 08:16
Adam6613: 大聯盟不死鳥  辣葛拉風的男人
double5915: 太神啦 又CARRY了一場123F 08/30 08:18
ePaper: 再見轟太神啦124F 08/30 08:20
zxcvbnm119: 好帥喔喔喔喔喔喔125F 08/30 08:22
Boss741108: 太神啦126F 08/30 08:22
s29961091: 太扯了吧 跟鬼一樣欸127F 08/30 08:23
jaysuzuki: 日本野手到美國可能都需要調一下128F 08/30 08:25
steven88669: 統神滿血復活129F 08/30 08:26
cmelo1515: 又打 又打 又打全壘打130F 08/30 08:26

--
※ 看板: Baseball 文章推薦值: 0 目前人氣: 0 累積人氣: 24 
分享網址:
r)回覆 e)編輯 d)刪除 M)不收藏 ^x)轉錄 同主題: =)首篇 [)上篇 ])下篇